Location: A�t �Alizem
(31.2076°N, 8.7872°W)
Time: 10:02:34
(UTC+00:00)

N. Korean satellite - Pass Details

Date: 20 September 2021
Orbit: 450 x 495 km, 97.3° (Epoch: 15 October)

Event Time Altitude Azimuth Distance (km) Brightness Sun altitude
Rises 05:54:03 0° 7° (N) 2,510 10.4 -6.9°
Reaches altitude 10° 05:56:06 10° 5° (N) 1,638 9.4 -6.4°
Maximum altitude 05:59:35 65° 283° (WNW) 527 6.5 -5.7°
Drops below altitude 10° 06:03:06 10° 201° (SSW) 1,653 9.0 -4.9°
Sets 06:05:11 0° 198° (SSW) 2,537 10.0 -4.5°
